Traverse City, MI

12:33 PM EDT on April 26, 2018 (GMT -0400)
Cherry Capital

Weather History for KTVC - April, 2014

Change the Weather History Date:

Thursday, April 10, 2014

  Actual Average Record
Temperature  
Mean Temperature 47 °F 41 °F  
Max Temperature 58 °F 51 °F 80 °F (1977)
Min Temperature 35 °F 31 °F 13 °F (1923)
Degree Days  
Heating Degree Days 18 24  
Month to date heating degree days 261 261  
Since 1 July heating degree days 7314 6663  
Cooling Degree Days 0 0  
Month to date cooling degree days 0 0  
Year to date cooling degree days 0 0  
Moisture  
Dew Point 30 °F    
Average Humidity 61    
Maximum Humidity 89    
Minimum Humidity 32    
Precipitation  
Precipitation 0.05 in 0.10 in 1.21 in (1978)
Month to date precipitation 0.57 0.92  
Year to date precipitation 2.91 7.10  
Sea Level Pressure  
Sea Level Pressure 29.66 in    
Wind  
Wind Speed 9 mph (SW)    
Max Wind Speed 22 mph    
Max Gust Speed 31 mph    
Visibility 10 miles    
Events      
T = Trace of Precipitation, MM = Missing Value Source: NWS Daily Summary

Daily Weather History Graph

Daily Weather History Graph

Search for Another Location

Airport or City:

Astronomy

Apr. 10, 2014 Rise Set
Actual Time 7:06 AM EDT 8:21 PM EDT
Civil Twilight 6:36 AM EDT 8:51 PM EDT
Nautical Twilight 6:00 AM EDT 9:27 PM EDT
Astronomical Twilight 5:22 AM EDT 10:06 PM EDT
Moon 3:54 PM EDT (4/10) 4:40 AM EDT (4/10)
Length of Visible Light 14h 14m
Length of Day
13h 14m
Waxing Gibbous, 79% of the Moon is Illuminated
Apr 10
Waxing Gibbous
Apr 15
Full
Apr 22
Last Quarter
Apr 29
New
May 6
First Quarter

Hourly Weather History & Observations

Time (EDT) Temp. Windchill Dew Point Humidity Pressure Visibility Wind Dir Wind Speed Gust Speed Precip Events Conditions
12:53 AM 51.1 °F - 27.0 °F 39% 29.67 in - SSW 12.7 mph 24.2 mph N/A   Mostly Cloudy
1:53 AM 51.1 °F - 27.0 °F 39% 29.64 in - SSW 13.8 mph 24.2 mph N/A   Clear
2:53 AM 52.0 °F - 27.0 °F 38% 29.62 in - SSW 8.1 mph 24.2 mph N/A   Clear
3:53 AM 52.0 °F - 28.0 °F 40% 29.59 in - SSW 9.2 mph 20.7 mph N/A   Clear
4:53 AM 53.1 °F - 28.9 °F 40% 29.57 in - SSW 9.2 mph 23.0 mph N/A   Clear
5:31 AM 54.0 °F - 28.9 °F 38% 29.53 in 10.0 mi SSW 11.5 mph 27.6 mph N/A   Mostly Cloudy
5:53 AM 53.1 °F - 28.9 °F 40% 29.55 in 10.0 mi SW 13.8 mph 31.1 mph N/A   Mostly Cloudy
6:53 AM 53.1 °F - 30.0 °F 41% 29.55 in 10.0 mi SSW 11.5 mph 21.9 mph N/A   Overcast
7:53 AM 53.1 °F - 30.9 °F 43% 29.56 in 10.0 mi SW 8.1 mph 19.6 mph N/A   Mostly Cloudy
8:53 AM 53.1 °F - 32.0 °F 45% 29.57 in 10.0 mi SW 10.4 mph 17.3 mph N/A   Mostly Cloudy
10:53 AM 55.9 °F - 33.1 °F 42% 29.58 in 10.0 mi WSW 10.4 mph 17.3 mph N/A   Mostly Cloudy
11:53 AM 54.0 °F - 34.0 °F 47% 29.59 in 10.0 mi West 11.5 mph - N/A   Overcast
12:53 PM 52.0 °F - 35.1 °F 53% 29.65 in 10.0 mi West 11.5 mph - N/A   Overcast
1:53 PM 45.0 °F 41.8 °F 41.0 °F 86% 29.65 in 10.0 mi Variable 5.8 mph - 0.05 in   Overcast
2:53 PM 50.0 °F - 41.0 °F 71% 29.65 in 10.0 mi SSW 8.1 mph - N/A   Overcast
3:53 PM 54.0 °F - 37.9 °F 55% 29.66 in 10.0 mi WSW 11.5 mph 20.7 mph N/A   Overcast
4:53 PM 55.0 °F - 34.0 °F 45% 29.66 in 10.0 mi WSW 10.4 mph 20.7 mph N/A   Mostly Cloudy
5:53 PM 57.0 °F - 28.0 °F 33% 29.67 in 10.0 mi WSW 16.1 mph 23.0 mph N/A   Mostly Cloudy
6:53 PM 57.0 °F - 28.9 °F 34% 29.70 in 10.0 mi SW 11.5 mph 20.7 mph N/A   Scattered Clouds
7:53 PM 55.0 °F - 26.1 °F 33% 29.72 in 10.0 mi SW 8.1 mph - N/A   Partly Cloudy
8:53 PM 52.0 °F - 24.1 °F 34% 29.75 in 10.0 mi SW 6.9 mph - N/A   Partly Cloudy
9:53 PM 48.9 °F - 24.1 °F 38% 29.81 in 10.0 mi West 8.1 mph - N/A   Partly Cloudy
10:53 PM 46.0 °F 43.9 °F 24.1 °F 42% 29.85 in 10.0 mi West 4.6 mph - N/A   Clear
11:30 PM 43.0 °F 41.3 °F 24.1 °F 47% 29.86 in 10.0 mi Variable 3.5 mph - N/A   Clear
11:53 PM 43.0 °F 41.3 °F 23.0 °F 45% 29.88 in - West 3.5 mph - N/A   Clear